DAL1051 KMSP-KSLC

Flight info

Callsign DAL1051
Flight time N/A
Altitude 34000
Route LEINY DCT ABR J158 DDY
Aircraft A320/M-DGVW/C

Departure

Time 2026-05-08 01:33
Airport Minneapolis–Saint Paul International Airport / Wold–Chamberlain Field (KMSP)

Arrival

Time N/A
Airport Salt Lake City International Airport (KSLC)
Time Latitude Longitude Altitude Speed Heading
2026-05-08 00:47 44.88043 -93.20985 827 ft 0 kts 31°
2026-05-08 01:26 44.88033 -93.20994 831 ft 4 kts 31°
2026-05-08 01:27 44.88011 -93.21014 831 ft 4 kts 35°
2026-05-08 01:27 44.87990 -93.21038 829 ft 4 kts 54°
2026-05-08 01:27 44.87981 -93.21068 834 ft 4 kts 105°
2026-05-08 01:27 44.87984 -93.21079 834 ft 0 kts 122°
2026-05-08 01:30 44.87949 -93.21000 834 ft 21 kts 122°
2026-05-08 01:30 44.87894 -93.20869 829 ft 14 kts 120°
2026-05-08 01:30 44.87829 -93.20724 834 ft 22 kts 124°
2026-05-08 01:30 44.87739 -93.20539 832 ft 24 kts 122°
2026-05-08 01:31 44.87650 -93.20326 829 ft 26 kts 121°
2026-05-08 01:31 44.87556 -93.20116 826 ft 24 kts 121°
2026-05-08 01:31 44.87474 -93.20036 829 ft 12 kts 211°
2026-05-08 01:31 44.87415 -93.20088 830 ft 9 kts 211°
2026-05-08 01:32 44.87373 -93.20161 828 ft 15 kts 277°
2026-05-08 01:32 44.87449 -93.20337 825 ft 30 kts 302°
2026-05-08 01:32 44.87682 -93.20893 831 ft 101 kts 302°
2026-05-08 01:32 44.88157 -93.21981 838 ft 156 kts 301°
2026-05-08 01:33 44.88760 -93.23360 1245 ft 171 kts 301°
2026-05-08 01:33 44.89416 -93.24815 1813 ft 181 kts 302°
2026-05-08 01:33 44.90112 -93.26360 2425 ft 193 kts 301°
2026-05-08 01:33 44.90750 -93.27963 2848 ft 189 kts 298°
2026-05-08 01:34 44.91379 -93.29700 3243 ft 205 kts 298°
2026-05-08 01:34 44.92026 -93.31533 3747 ft 218 kts 287°
2026-05-08 01:34 44.92140 -93.33724 4253 ft 236 kts 266°
2026-05-08 01:34 44.92034 -93.36082 4761 ft 243 kts 269°
2026-05-08 01:35 44.91995 -93.38471 5239 ft 245 kts 270°
2026-05-08 01:35 44.91974 -93.40860 5737 ft 245 kts 270°
2026-05-08 01:35 44.91951 -93.43272 6237 ft 245 kts 270°
2026-05-08 01:35 44.91922 -93.45680 6715 ft 246 kts 270°
2026-05-08 01:36 44.91887 -93.48097 7196 ft 246 kts 270°
2026-05-08 01:36 44.91848 -93.50519 7674 ft 247 kts 271°
2026-05-08 01:36 44.91807 -93.52947 8189 ft 248 kts 271°
2026-05-08 01:36 44.91760 -93.55384 8697 ft 249 kts 271°
2026-05-08 01:37 44.91712 -93.57826 9214 ft 250 kts 271°
2026-05-08 01:37 44.91662 -93.60282 9729 ft 252 kts 271°
2026-05-08 01:37 44.91614 -93.62737 9878 ft 253 kts 271°
2026-05-08 01:37 44.91687 -93.65206 9903 ft 251 kts 276°
2026-05-08 01:38 44.91808 -93.67674 10086 ft 254 kts 276°
2026-05-08 01:38 44.91931 -93.70214 10516 ft 270 kts 277°
2026-05-08 01:38 44.92067 -93.72968 10706 ft 293 kts 276°
2026-05-08 01:38 44.92212 -93.75931 11073 ft 308 kts 276°
2026-05-08 01:39 44.92356 -93.78975 11710 ft 313 kts 277°
2026-05-08 01:39 44.92499 -93.82064 12388 ft 317 kts 277°
2026-05-08 01:39 44.92594 -93.84122 12857 ft 319 kts 277°
2026-05-08 01:39 44.92786 -93.88334 13772 ft 324 kts 277°
2026-05-08 01:40 44.92929 -93.91529 14380 ft 327 kts 277°
2026-05-08 01:40 44.93068 -93.94696 15006 ft 329 kts 277°
2026-05-08 01:40 44.93163 -93.96873 15433 ft 330 kts 278°
2026-05-08 01:40 44.93353 -94.01168 16238 ft 333 kts 278°
2026-05-08 01:41 44.93502 -94.04434 16846 ft 335 kts 278°
2026-05-08 01:41 44.93652 -94.07714 17456 ft 337 kts 278°
2026-05-08 01:41 44.93755 -94.09945 17876 ft 338 kts 278°
2026-05-08 01:41 44.93953 -94.14352 18628 ft 341 kts 278°
2026-05-08 01:42 44.94051 -94.16621 18965 ft 343 kts 278°
2026-05-08 01:42 44.94194 -94.19986 19466 ft 345 kts 278°
2026-05-08 01:42 44.94338 -94.23375 19963 ft 348 kts 278°
2026-05-08 01:42 44.94480 -94.26748 20466 ft 350 kts 278°
2026-05-08 01:43 44.94623 -94.30196 20968 ft 353 kts 278°
2026-05-08 01:43 44.94768 -94.33657 21491 ft 355 kts 278°
2026-05-08 01:43 44.94913 -94.37142 21984 ft 357 kts 278°
2026-05-08 01:43 44.95059 -94.40662 22466 ft 360 kts 277°
2026-05-08 01:44 44.95204 -94.44201 22953 ft 362 kts 277°
2026-05-08 01:44 44.95348 -94.47756 23424 ft 364 kts 277°
2026-05-08 01:44 44.95491 -94.51343 23816 ft 367 kts 277°
2026-05-08 01:44 44.95634 -94.54939 24183 ft 369 kts 277°
2026-05-08 01:45 44.95778 -94.58567 24534 ft 370 kts 277°
2026-05-08 01:45 44.95922 -94.62201 24900 ft 372 kts 277°
2026-05-08 01:45 44.96068 -94.65863 25252 ft 374 kts 277°
2026-05-08 01:45 44.96214 -94.69530 25597 ft 376 kts 277°
2026-05-08 01:46 44.96360 -94.73219 25928 ft 377 kts 277°
2026-05-08 01:46 44.96504 -94.76930 26265 ft 379 kts 277°
2026-05-08 01:46 44.96646 -94.80655 26598 ft 381 kts 277°
2026-05-08 01:46 44.96787 -94.84397 26913 ft 383 kts 277°
2026-05-08 01:47 44.96926 -94.88161 27228 ft 385 kts 277°
2026-05-08 01:47 44.97064 -94.91938 27543 ft 386 kts 277°
2026-05-08 01:47 44.97202 -94.95735 27854 ft 388 kts 277°
2026-05-08 01:48 44.97478 -95.03387 28419 ft 392 kts 277°
2026-05-08 01:48 44.97615 -95.07236 28706 ft 393 kts 277°
2026-05-08 01:48 44.97750 -95.11098 28983 ft 395 kts 277°
2026-05-08 01:48 44.97885 -95.14988 29254 ft 397 kts 277°
2026-05-08 01:49 44.98023 -95.18885 29512 ft 398 kts 277°
2026-05-08 01:49 44.98162 -95.22799 29780 ft 400 kts 277°
2026-05-08 01:49 44.98297 -95.26725 30014 ft 402 kts 277°
2026-05-08 01:49 44.98431 -95.30676 30218 ft 403 kts 277°
2026-05-08 01:50 44.98561 -95.34632 30413 ft 404 kts 277°
2026-05-08 01:50 44.98688 -95.38605 30574 ft 406 kts 276°
2026-05-08 01:50 44.98812 -95.42588 30838 ft 405 kts 276°
2026-05-08 01:50 44.98932 -95.46551 31113 ft 404 kts 276°
2026-05-08 01:51 44.99052 -95.50514 31377 ft 403 kts 276°
2026-05-08 01:51 44.99173 -95.54466 31644 ft 403 kts 276°
2026-05-08 01:51 44.99298 -95.58420 31913 ft 402 kts 276°
2026-05-08 01:51 44.99425 -95.62359 32181 ft 401 kts 276°
2026-05-08 01:52 44.99553 -95.66292 32422 ft 401 kts 276°
2026-05-08 01:52 44.99675 -95.70220 32687 ft 400 kts 276°
2026-05-08 01:52 44.99790 -95.74148 32925 ft 400 kts 276°
2026-05-08 01:52 44.99903 -95.78073 33167 ft 400 kts 276°
2026-05-08 01:53 45.00015 -95.81994 33416 ft 399 kts 276°
2026-05-08 01:53 45.00124 -95.85848 33670 ft 399 kts 276°
2026-05-08 01:53 45.00235 -95.89770 33868 ft 399 kts 276°
2026-05-08 01:53 45.00347 -95.93756 33911 ft 403 kts 275°
2026-05-08 01:54 45.00565 -96.01683 33906 ft 410 kts 275°
2026-05-08 01:54 45.00782 -96.09748 33907 ft 411 kts 275°
2026-05-08 01:55 45.00996 -96.17826 33914 ft 412 kts 275°
2026-05-08 01:55 45.01202 -96.25925 33920 ft 413 kts 275°
2026-05-08 01:56 45.01400 -96.34031 33917 ft 413 kts 275°
2026-05-08 01:56 45.01593 -96.42141 33935 ft 413 kts 275°
2026-05-08 01:57 45.01778 -96.50244 33926 ft 413 kts 275°
2026-05-08 01:57 45.01962 -96.58354 33920 ft 413 kts 275°
2026-05-08 01:58 45.02145 -96.66473 33913 ft 413 kts 274°
2026-05-08 01:58 45.02314 -96.74597 33914 ft 414 kts 274°
2026-05-08 01:59 45.02467 -96.82731 33913 ft 414 kts 274°
2026-05-08 01:59 45.02626 -96.90863 33895 ft 414 kts 274°
2026-05-08 02:00 45.02789 -96.98995 33894 ft 414 kts 274°
2026-05-08 02:00 45.02938 -97.07138 33898 ft 415 kts 274°
2026-05-08 02:01 45.03082 -97.15285 33902 ft 415 kts 274°
2026-05-08 02:01 45.03223 -97.23380 33905 ft 415 kts 274°
2026-05-08 02:02 45.03357 -97.31535 33907 ft 415 kts 274°
2026-05-08 02:02 45.03479 -97.39683 33903 ft 415 kts 274°
2026-05-08 02:03 45.03598 -97.47845 33904 ft 415 kts 274°
2026-05-08 02:03 45.03749 -97.55991 33904 ft 414 kts 278°
2026-05-08 02:04 45.05314 -97.63727 33905 ft 410 kts 297°
2026-05-08 02:04 45.08509 -97.70417 33880 ft 411 kts 304°
2026-05-08 02:05 45.11846 -97.77004 33880 ft 413 kts 304°
2026-05-08 02:05 45.15185 -97.83635 33896 ft 413 kts 304°
2026-05-08 02:06 45.18516 -97.90272 33897 ft 413 kts 304°
2026-05-08 02:06 45.21852 -97.96914 33898 ft 414 kts 304°
2026-05-08 02:07 45.25189 -98.03568 33896 ft 414 kts 304°
2026-05-08 02:07 45.28515 -98.10234 33889 ft 414 kts 304°
2026-05-08 02:08 45.31842 -98.16905 33877 ft 414 kts 304°
2026-05-08 02:08 45.35163 -98.23586 33872 ft 414 kts 304°
2026-05-08 02:09 45.38417 -98.30290 33867 ft 414 kts 298°
2026-05-08 02:09 45.39536 -98.34038 33866 ft 413 kts 286°
2026-05-08 02:09 45.40035 -98.38063 33865 ft 415 kts 274°
2026-05-08 02:10 45.39892 -98.42168 33866 ft 418 kts 263°
2026-05-08 02:10 45.39110 -98.46165 33884 ft 423 kts 252°
2026-05-08 02:10 45.36901 -98.53943 33882 ft 424 kts 252°
2026-05-08 02:11 45.34674 -98.61716 33876 ft 425 kts 251°
2026-05-08 02:11 45.32443 -98.69507 33882 ft 426 kts 251°
2026-05-08 02:12 45.30210 -98.77306 33887 ft 426 kts 251°
2026-05-08 02:12 45.27970 -98.85102 33893 ft 427 kts 251°
2026-05-08 02:13 45.25716 -98.92894 33889 ft 427 kts 251°
2026-05-08 02:13 45.23458 -99.00691 33905 ft 427 kts 251°
2026-05-08 02:14 45.21195 -99.08479 33887 ft 427 kts 251°
2026-05-08 02:14 45.18937 -99.16220 33901 ft 428 kts 251°
2026-05-08 02:15 45.16660 -99.24011 33894 ft 428 kts 251°
2026-05-08 02:15 45.14369 -99.31808 33877 ft 429 kts 251°
2026-05-08 02:16 45.12066 -99.39590 33886 ft 429 kts 251°
2026-05-08 02:16 45.09763 -99.47384 33888 ft 429 kts 251°
2026-05-08 02:17 45.07465 -99.55173 33893 ft 429 kts 251°
2026-05-08 02:17 45.05154 -99.62956 33880 ft 429 kts 251°
2026-05-08 02:18 45.02833 -99.70732 33883 ft 429 kts 251°
2026-05-08 02:18 45.00515 -99.78502 33889 ft 429 kts 251°
2026-05-08 02:19 44.98199 -99.86278 33884 ft 429 kts 251°
2026-05-08 02:19 44.95864 -99.94043 33892 ft 430 kts 251°
2026-05-08 02:20 44.93509 -100.01806 33870 ft 430 kts 251°
2026-05-08 02:20 44.91158 -100.09558 33881 ft 430 kts 251°
2026-05-08 02:21 44.88810 -100.17325 33885 ft 430 kts 251°
2026-05-08 02:21 44.86456 -100.25082 33887 ft 431 kts 251°
2026-05-08 02:22 44.84081 -100.32845 33873 ft 431 kts 252°
2026-05-08 02:22 44.81706 -100.40592 33882 ft 431 kts 252°
2026-05-08 02:23 44.79324 -100.48343 33896 ft 431 kts 252°
2026-05-08 02:23 44.76950 -100.56027 33898 ft 431 kts 252°
2026-05-08 02:24 44.74566 -100.63759 33890 ft 431 kts 252°
2026-05-08 02:24 44.72174 -100.71481 33887 ft 431 kts 252°
2026-05-08 02:25 44.69776 -100.79191 33887 ft 430 kts 252°
2026-05-08 02:25 44.67374 -100.86892 33893 ft 430 kts 252°
2026-05-08 02:26 44.64967 -100.94574 33880 ft 430 kts 252°
2026-05-08 02:26 44.62555 -101.02243 33885 ft 430 kts 252°
2026-05-08 02:27 44.60140 -101.09916 33886 ft 430 kts 252°
2026-05-08 02:27 44.57723 -101.17588 33891 ft 430 kts 252°
2026-05-08 02:28 44.55300 -101.25251 33893 ft 430 kts 252°
2026-05-08 02:28 44.52864 -101.32917 33896 ft 430 kts 252°
2026-05-08 02:29 44.50426 -101.40573 33887 ft 430 kts 252°
2026-05-08 02:29 44.47985 -101.48230 33903 ft 431 kts 252°
2026-05-08 02:30 44.45951 -101.54594 33910 ft 431 kts 252°
2026-05-08 02:30 44.43491 -101.62245 33916 ft 431 kts 252°
2026-05-08 02:31 44.41021 -101.69884 33897 ft 431 kts 252°
2026-05-08 02:31 44.38559 -101.77511 33898 ft 430 kts 252°
2026-05-08 02:32 44.36098 -101.85124 33905 ft 429 kts 252°
2026-05-08 02:32 44.33631 -101.92719 33914 ft 429 kts 252°
2026-05-08 02:33 44.31165 -102.00302 33915 ft 429 kts 252°
2026-05-08 02:33 44.28689 -102.07874 33892 ft 429 kts 251°
2026-05-08 02:34 44.26205 -102.15443 33902 ft 429 kts 251°
2026-05-08 02:34 44.23726 -102.22995 33916 ft 428 kts 251°
2026-05-08 02:35 44.21241 -102.30550 33928 ft 428 kts 251°
2026-05-08 02:35 44.18752 -102.38095 33920 ft 428 kts 251°
2026-05-08 02:36 44.16253 -102.45623 33913 ft 428 kts 251°
2026-05-08 02:36 44.13765 -102.53100 33915 ft 428 kts 251°
2026-05-08 02:37 44.11256 -102.60617 33920 ft 429 kts 251°
2026-05-08 02:37 44.08741 -102.68136 33923 ft 429 kts 251°
2026-05-08 02:38 44.06226 -102.75653 33924 ft 428 kts 251°
2026-05-08 02:38 44.03705 -102.83156 33907 ft 428 kts 250°
2026-05-08 02:39 44.01182 -102.90651 33909 ft 428 kts 250°
2026-05-08 02:39 43.98655 -102.98132 33909 ft 428 kts 250°
2026-05-08 02:40 43.96450 -103.05743 33911 ft 424 kts 256°
2026-05-08 02:40 43.94500 -103.13457 33898 ft 424 kts 256°
2026-05-08 02:41 43.92542 -103.21173 33900 ft 424 kts 256°
2026-05-08 02:41 43.90574 -103.28887 33927 ft 424 kts 255°
2026-05-08 02:42 43.88596 -103.36590 33946 ft 424 kts 255°
2026-05-08 02:42 43.86614 -103.44287 33965 ft 424 kts 255°
2026-05-08 02:43 43.84619 -103.51990 33966 ft 425 kts 255°
2026-05-08 02:43 43.82625 -103.59682 33988 ft 424 kts 255°
2026-05-08 02:44 43.80630 -103.67374 33996 ft 424 kts 255°
2026-05-08 02:44 43.78628 -103.75065 33996 ft 424 kts 255°
2026-05-08 02:45 43.76619 -103.82743 33968 ft 424 kts 255°
2026-05-08 02:45 43.74607 -103.90409 33950 ft 424 kts 255°
2026-05-08 02:46 43.72587 -103.98070 33947 ft 424 kts 255°
2026-05-08 02:46 43.70566 -104.05732 33936 ft 424 kts 255°
2026-05-08 02:47 43.68552 -104.13330 33962 ft 424 kts 255°
2026-05-08 02:47 43.66522 -104.20960 33964 ft 424 kts 255°
2026-05-08 02:48 43.64489 -104.28598 33957 ft 423 kts 255°
2026-05-08 02:48 43.62451 -104.36217 33946 ft 423 kts 254°
2026-05-08 02:49 43.60406 -104.43829 33946 ft 423 kts 254°